Simultaneous Nadir Overpasses (SNOs) Predictions

Prediction of SNOs between AQUA and METOP-A Satellite Orbit:

Table of predicted SNOs for the next 14.0 days since TLE Epoch: 6/3/2016
Index Date (AQUA) Time (AQUA) Lat,Lon (AQUA) SZA (AQUA ) Date (METOP-A) Time (METOP-A) Lat,Lon (METOP-A) SZA (METOP-A ) Distance(km) Time Diff (sec)
1 06/05/2016 15:43:07 73.30, -60.44 50.63 06/05/2016 15:42:00 73.28, -62.78 50.70 74.90 67
2 06/05/2016 16:32:44 -73.91, 105.90 128.73 06/05/2016 16:32:29 -73.90, 105.98 128.75 2.86 15
3 06/05/2016 17:22:13 73.98, -86.61 51.34 06/05/2016 17:23:08 73.96, -86.54 51.31 3.12 55
4 06/08/2016 11:17:26 73.61, 5.36 50.69 06/08/2016 11:16:15 73.59, 4.33 50.72 32.29 71
5 06/08/2016 12:06:57 -73.90, 172.36 129.01 06/08/2016 12:06:50 -73.91, 172.42 128.99 2.16 7
6 06/08/2016 12:56:26 73.97, -20.16 51.07 06/08/2016 12:57:29 73.97, -20.11 51.06 1.35 63
7 06/11/2016 06:51:44 73.82, 71.34 50.71 06/11/2016 06:50:32 73.85, 71.34 50.74 3.01 72
8 06/11/2016 07:41:11 -73.90,-121.20 129.21 06/11/2016 07:41:12 -73.92,-121.14 129.19 3.00 1
9 06/11/2016 08:30:40 73.97, 46.28 50.87 06/11/2016 08:31:51 73.97, 46.31 50.86 1.04 71
10 06/14/2016 02:25:58 73.83, 137.75 50.57 06/14/2016 02:24:54 73.85, 137.76 50.59 1.87 64
11 06/14/2016 03:15:25 -73.91, -54.78 129.36 06/14/2016 03:15:34 -73.93, -54.72 129.34 2.95 9
12 06/14/2016 04:04:58 74.19, 112.21 50.95 06/14/2016 04:06:08 74.22, 113.34 50.94 34.25 70
13 06/16/2016 22:00:11 73.86,-155.86 50.49 06/16/2016 21:59:15 73.85,-155.83 50.49 1.27 56
14 06/16/2016 22:49:38 -73.93, 11.61 129.43 06/16/2016 22:49:55 -73.94, 11.70 129.43 2.76 17




NCC Satellite Simultaneous Nadir Overpasses (SNOs) Prediction Service
